Date String (YYYY-MM-DD hh:mm:ss) UTC,Instrument flags,Ambient pressure (hPa),Sample flow (lpm),Bypass flow (lpm),Sample temperature (°C),Ambient temperature (°C),ASC tube jacket temperature (°C),LED temperature (°C),Box temperature (°C),Sample RH (%),Span deviation,Mass concentration (μg/m³),Mass concentration (μg/m³),Mass concentration (μg/m³)
DateTimeUTC,F1_M11,P_M11,Q1_M11,Q2_M11,T1_M11,T2_M11,T3_M11,T4_M11,T5_M11,U1_M11,ZSPAN_M11,X0_M11,X2_M11,X1_M11
2021-11-05 16:00:00,,0827.6,5.01,0.00,28.7,28.1,00.0,37.6,30.6,12.3,0000.0,0009.61,0003.76,0003.23
2021-11-05 16:01:00,,0827.6,4.99,0.00,28.8,28.1,00.0,37.6,30.6,12.2,0000.0,0010.44,0003.93,0003.37
2021-11-05 16:02:00,,0827.6,5.00,0.00,28.8,28.1,00.0,37.6,30.6,12.1,0000.0,0010.63,0004.06,0003.47
2021-11-05 16:03:00,,0827.6,4.99,0.00,28.8,28.1,00.0,37.6,30.7,12.2,0000.0,0010.96,0004.07,0003.48
2021-11-05 16:04:00,,0827.6,5.00,0.00,28.8,28.2,00.0,37.7,30.7,12.3,0000.2,0011.57,0004.09,0003.49
2021-11-05 16:05:00,,0827.5,5.00,0.00,28.9,28.2,00.0,37.7,30.7,12.6,0000.6,0011.95,0004.09,0003.50
2021-11-05 16:06:00,,0827.5,5.00,0.00,28.9,28.3,00.0,37.7,30.7,12.4,0000.8,0011.95,0004.09,0003.53
2021-11-05 16:07:00,,0827.5,5.01,0.00,28.9,28.3,00.0,37.7,30.8,12.5,0001.7,0011.29,0004.11,0003.54
2021-11-05 16:08:00,,0827.5,5.00,0.00,28.9,28.3,00.0,37.8,30.8,12.5,0001.4,0011.08,0004.14,0003.55
2021-11-05 16:09:00,,0827.6,4.99,0.00,29.0,28.3,00.0,37.8,30.8,12.5,0001.0,0010.83,0004.15,0003.55
2021-11-05 16:10:00,,0827.7,5.00,0.00,29.0,28.3,00.0,37.8,30.8,12.6,0001.0,0010.41,0004.12,0003.53
2021-11-05 16:11:00,,0827.6,5.01,0.00,29.0,28.4,00.0,37.8,30.8,12.6,0002.3,0010.65,0004.15,0003.54
2021-11-05 16:12:00,,0827.6,5.00,0.00,29.0,28.4,00.0,37.9,30.9,12.4,0002.7,0010.34,0004.21,0003.55
2021-11-05 16:13:00,,0827.6,4.99,0.00,29.1,28.4,00.0,37.9,30.9,12.2,0001.1,0010.40,0004.22,0003.56
2021-11-05 16:14:00,,0827.6,5.00,0.00,29.1,28.5,00.0,37.9,30.9,12.1,0000.0,0010.20,0004.21,0003.55
2021-11-05 16:15:00,,0827.8,5.01,0.00,29.1,28.5,00.0,38.0,31.0,12.2,0000.0,0010.42,0004.18,0003.52
2021-11-05 16:16:00,,0827.7,5.00,0.00,29.1,28.5,00.0,38.0,31.0,12.3,0000.0,0010.77,0004.17,0003.51
2021-11-05 16:17:00,,0827.7,4.99,0.00,29.2,28.5,00.0,38.0,31.0,12.3,0000.0,0011.38,0004.16,0003.51
2021-11-05 16:18:00,,0827.7,5.00,0.00,29.2,28.6,00.0,38.0,31.0,12.2,0001.4,0011.40,0004.18,0003.53
2021-11-05 16:19:00,,0827.7,5.00,0.00,29.2,28.6,00.0,38.1,31.1,12.3,0001.8,0011.16,0004.18,0003.55
2021-11-05 16:20:00,,0827.7,5.00,0.00,29.3,28.6,00.0,38.1,31.1,12.2,0002.0,0010.97,0004.18,0003.55
2021-11-05 16:21:00,,0827.7,5.00,0.00,29.3,28.6,00.0,38.1,31.1,12.0,0001.6,0011.19,0004.17,0003.56
2021-11-05 16:22:00,,0827.7,5.00,0.00,29.3,28.7,00.0,38.1,31.2,11.9,0000.0,0011.29,0004.17,0003.55
2021-11-05 16:23:00,,0827.7,5.01,0.00,29.3,28.7,00.0,38.2,31.2,11.4,-000.3,0010.87,0004.07,0003.51
2021-11-05 16:24:00,,0827.7,5.00,0.00,29.4,28.7,00.0,38.2,31.2,11.5,-000.1,0010.74,0003.98,0003.46
2021-11-05 16:25:00,,0827.7,5.00,0.00,29.4,28.8,00.0,38.2,31.3,11.8,-001.1,0011.16,0004.01,0003.49
2021-11-05 16:26:00,,0827.7,5.00,0.00,29.4,28.8,00.0,38.2,31.3,11.8,-001.0,0010.90,0004.01,0003.51
2021-11-05 16:27:00,,0827.8,5.00,0.00,29.4,28.8,00.0,38.3,31.3,11.7,-001.1,0010.01,0003.98,0003.49
2021-11-05 16:28:00,,0827.7,5.00,0.00,29.5,28.8,00.0,38.3,31.3,11.7,-001.0,0009.48,0003.92,0003.44
2021-11-05 16:29:00,,0827.7,5.00,0.00,29.5,28.8,00.0,38.3,31.3,11.7,-000.1,0010.43,0003.88,0003.40
2021-11-05 16:30:00,,0827.7,5.01,0.00,29.5,28.9,00.0,38.4,31.4,12.1,0000.0,0010.97,0003.87,0003.38
2021-11-05 16:31:00,,0827.7,4.99,0.00,29.6,28.9,00.0,38.4,31.4,11.8,0000.0,0011.00,0003.85,0003.36
2021-11-05 16:32:00,,0827.7,4.99,0.00,29.6,29.0,00.0,38.4,31.4,11.7,0000.0,0011.11,0003.80,0003.32
2021-11-05 16:33:00,,0827.8,5.01,0.00,29.6,29.0,00.0,38.4,31.5,11.9,0000.0,0011.19,0003.80,0003.31
2021-11-05 16:34:00,,0827.8,5.00,0.00,29.6,29.0,00.0,38.5,31.5,11.5,0000.0,0011.13,0003.79,0003.31
2021-11-05 16:35:00,,0827.9,5.00,0.00,29.7,29.0,00.0,38.5,31.5,11.6,0000.0,0011.71,0003.88,0003.36
2021-11-05 16:36:00,,0827.9,4.99,0.00,29.7,29.1,00.0,38.5,31.6,11.9,0000.0,0012.38,0003.93,0003.39
2021-11-05 16:37:00,,0827.9,5.01,0.00,29.7,29.1,00.0,38.5,31.6,12.0,0000.0,0012.65,0003.98,0003.42
2021-11-05 16:38:00,,0827.9,5.00,0.00,29.8,29.1,00.0,38.6,31.6,12.1,0000.0,0012.84,0004.06,0003.47
2021-11-05 16:39:00,,0827.7,5.00,0.00,29.8,29.1,00.0,38.6,31.7,12.0,0000.0,0013.42,0004.18,0003.57
2021-11-05 16:40:00,,0827.7,5.01,0.00,29.8,29.1,00.0,38.6,31.7,11.9,0000.0,0012.66,0004.22,0003.63
2021-11-05 16:41:00,,0827.7,5.01,0.00,29.8,29.2,00.0,38.7,31.7,11.9,0000.0,0011.88,0004.27,0003.67
2021-11-05 16:42:00,,0827.7,5.00,0.00,29.9,29.2,00.0,38.7,31.7,11.8,0000.0,0011.89,0004.29,0003.70
2021-11-05 16:43:00,,0827.7,5.01,0.00,29.9,29.2,00.0,38.7,31.7,11.7,0000.0,0012.28,0004.35,0003.75
2021-11-05 16:44:00,,0827.7,5.00,0.00,29.9,29.2,00.0,38.7,31.8,11.7,0000.0,0011.66,0004.38,0003.81
2021-11-05 16:45:00,,0827.7,5.00,0.00,30.0,29.3,00.0,38.8,31.8,11.6,0000.0,0011.46,0004.45,0003.86
2021-11-05 16:46:00,,0827.7,5.00,0.00,30.0,29.3,00.0,38.8,31.8,11.5,0000.0,0011.09,0004.47,0003.90
2021-11-05 16:47:00,,0827.7,5.01,0.00,30.0,29.3,00.0,38.8,31.9,11.2,0000.0,0010.22,0004.43,0003.89
2021-11-05 16:48:00,,0827.7,4.99,0.00,30.0,29.4,00.0,38.9,31.9,11.4,0000.0,0009.45,0004.38,0003.86
2021-11-05 16:49:00,,0827.7,5.01,0.00,30.1,29.4,00.0,38.9,31.9,11.1,0000.0,0009.11,0004.30,0003.81
2021-11-05 16:50:00,,0827.7,5.00,0.00,30.1,29.4,00.0,38.9,32.0,11.0,0000.0,0009.33,0004.22,0003.74
2021-11-05 16:51:00,,0827.7,4.99,0.00,30.1,29.5,00.0,38.9,32.0,11.0,0000.0,0009.47,0004.18,0003.69
2021-11-05 16:52:00,,0827.7,5.00,0.00,30.2,29.5,00.0,39.0,32.0,11.0,0000.0,0009.90,0004.10,0003.62
2021-11-05 16:53:00,,0827.8,4.99,0.00,30.2,29.5,00.0,39.0,32.0,11.3,0000.0,0009.87,0004.07,0003.58
2021-11-05 16:54:00,,0827.8,5.01,0.00,30.2,29.6,00.0,39.0,32.0,11.5,0000.0,0009.50,0004.08,0003.56
2021-11-05 16:55:00,,0827.8,4.99,0.00,30.2,29.6,00.0,39.0,32.0,11.7,0000.0,0009.55,0004.12,0003.56
2021-11-05 16:56:00,,0827.8,5.00,0.00,30.2,29.6,00.0,39.1,32.0,11.7,0000.0,0009.87,0004.12,0003.55
2021-11-05 16:57:00,,0827.8,5.00,0.00,30.3,29.6,00.0,39.1,32.1,11.7,0000.0,0011.29,0004.13,0003.55
2021-11-05 16:58:00,,0827.8,5.00,0.00,30.3,29.6,00.0,39.1,32.1,11.7,0000.0,0011.99,0004.17,0003.57
2021-11-05 16:59:00,,0827.8,5.00,0.00,30.3,29.7,00.0,39.1,32.1,11.6,0000.0,0012.10,0004.24,0003.60
